EW4225 Weather Reports


Display with metric or nautical units.
time (UTC)temp
F
wind
direction
speed
MPH
gust
MPH
rain 1hr
in
rain 24hr
in
rain mn
in
humidity
%
barometer
mb
20180218181507 33 146 6.0 17.0 0.03 0.03 0.03 83 1020.3
20180218181007 33 146 6.0 17.0 0.03 0.03 0.03 84 1020.4
20180218180507 33 150 7.0 16.0 0.03 0.03 0.03 85 1020.7
20180218180007 33 150 6.0 13.0 0.03 0.03 0.03 85 1021.0
20180218175507 33 146 6.0 12.0 0.02 0.02 0.02 86 1021.4
20180218175007 32 149 6.0 11.0 0.02 0.02 0.02 87 1021.5
20180218174507 32 150 5.0 11.0 0.01 0.01 0.01 88 1021.8
20180218174007 32 151 4.0 13.0 0.01 0.01 0.01 90 1021.9
20180218173507 31 152 6.0 13.0 0.00 0.00 0.00 90 1022.0
20180218173006 31 155 6.0 11.0 0.00 0.00 0.00 91 1022.2
20180218172507 30 151 5.0 13.0 0.00 0.00 0.00 92 1022.2
20180218172007 30 150 5.0 13.0 0.00 0.00 0.00 93 1022.3
20180218171507 29 150 4.0 11.0 0.00 0.00 0.00 94 1022.4
20180218171007 29 147 4.0 13.0 0.00 0.00 0.00 94 1022.5
20180218170507 28 148 3.0 13.0 0.00 0.00 0.00 94 1022.5
20180218170007 27 147 2.0 6.0 0.00 0.00 0.00 94 1022.4
20180218165507 27 146 3.0 10.0 0.00 0.00 0.00 95 1022.4
20180218165008 26 149 4.0 10.0 0.00 0.00 0.00 94 1022.7
20180218164507 26 157 3.0 6.0 0.00 0.00 0.00 94 1023.0
20180218164007 25 160 2.0 8.0 0.00 0.00 0.00 95 1023.0
20180218163507 25 158 2.0 8.0 0.00 0.00 0.00 95 1023.3
20180218163007 25 161 3.0 10.0 0.00 0.00 0.00 95 1023.4
20180218162507 24 163 4.0 10.0 0.00 0.00 0.00 95 1023.4
20180218162007 24 164 2.0 6.0 0.00 0.00 0.00 95 1023.4
20180218161506 23 164 2.0 9.0 0.00 0.00 0.00 95 1023.5
20180218161008 23 163 2.0 9.0 0.00 0.00 0.00 95 1023.5
20180218160506 23 164 2.0 6.0 0.00 0.00 0.00 94 1023.6
20180218160007 22 167 1.0 5.0 0.00 0.00 0.00 94 1023.6
20180218155507 22 162 1.0 3.0 0.00 0.00 0.00 94 1023.5
20180218155007 22 159 1.0 3.0 0.00 0.00 0.00 94 1023.5
20180218154507 21 152 2.0 5.0 0.00 0.00 0.00 94 1023.4
20180218154007 21 152 2.0 5.0 0.00 0.00 0.00 94 1023.4
20180218153506 21 154 2.0 4.0 0.00 0.00 0.00 94 1023.4
20180218153006 20 149 2.0 5.0 0.00 0.00 0.00 94 1023.4
20180218152506 20 151 3.0 6.0 0.00 0.00 0.00 94 1023.5
20180218152007 20 160 2.0 6.0 0.00 0.00 0.00 94 1023.5
20180218151507 20 165 2.0 6.0 0.00 0.00 0.00 94 1023.6
20180218151006 19 173 2.0 6.0 0.00 0.00 0.00 94 1023.6
20180218150507 19 186 1.0 6.0 0.00 0.00 0.00 94 1023.4
20180218150006 19 172 1.0 5.0 0.00 0.00 0.00 94 1023.2
20180218145507 18 173 0.0 4.0 0.00 0.00 0.00 94 1023.0
20180218145007 18 183 0.0 3.0 0.00 0.00 0.00 94 1022.9
20180218144506 17 173 0.0 1.0 0.00 0.00 0.00 94 1022.8
20180218144007 17 0 0.0 0.0 0.00 0.00 0.00 94 1022.7
20180218143506 16 0 0.0 0.0 0.00 0.00 0.00 93 1022.7
20180218143007 16 143 0.0 2.0 0.00 0.00 0.00 94 1022.5
20180218142506 16 142 0.0 2.0 0.00 0.00 0.00 94 1022.5
20180218142008 16 139 0.0 1.0 0.00 0.00 0.00 93 1022.6
20180218141507 15 140 0.0 2.0 0.00 0.00 0.00 93 1022.5
20180218141006 15 125 1.0 3.0 0.00 0.00 0.00 93 1022.5
20180218140507 14 123 1.0 3.0 0.00 0.00 0.00 93 1022.5
20180218140007 14 119 1.0 2.0 0.00 0.00 0.00 93 1022.2
20180218135506 14 109 0.0 1.0 0.00 0.00 0.00 93 1022.2
20180218135007 14 109 0.0 1.0 0.00 0.00 0.00 92 1022.0
20180218134507 13 111 1.0 3.0 0.00 0.00 0.00 93 1021.9
20180218134007 13 106 1.0 3.0 0.00 0.00 0.00 92 1021.7
20180218133507 13 95 2.0 3.0 0.00 0.00 0.00 92 1021.6
20180218133006 13 94 2.0 4.0 0.00 0.00 0.00 92 1021.6
20180218132506 13 94 2.0 4.0 0.00 0.00 0.00 92 1021.6
20180218132006 13 86 2.0 5.0 0.00 0.00 0.00 92 1021.4
20180218131506 13 86 3.0 6.0 0.00 0.00 0.00 92 1021.3
20180218131006 13 90 2.0 6.0 0.00 0.00 0.00 92 1021.4
20180218130507 13 89 0.0 4.0 0.00 0.00 0.00 91 1021.4
20180218130006 13 66 0.0 2.0 0.00 0.00 0.00 92 1021.5
20180218125506 13 63 0.0 1.0 0.00 0.00 0.00 92 1021.8
20180218125005 13 0 0.0 0.0 0.00 0.00 0.00 91 1021.8
20180218124506 13 0 0.0 0.0 0.00 0.00 0.00 92 1021.8
20180218124006 13 0 0.0 0.0 0.00 0.00 0.00 92 1022.0
20180218123508 14 0 0.0 0.0 0.00 0.00 0.00 92 1022.3
20180218123007 14 0 0.0 0.0 0.00 0.00 0.00 92 1022.2
20180218122506 14 0 0.0 0.0 0.00 0.00 0.00 92 1022.2
20180218122007 14 0 0.0 0.0 0.00 0.00 0.00 92 1022.2
20180218121506 14 0 0.0 0.0 0.00 0.00 0.00 92 1022.3
20180218121007 14 0 0.0 0.0 0.00 0.00 0.00 92 1022.5
20180218120506 14 0 0.0 0.0 0.00 0.00 0.00 92 1022.5
20180218120006 15 0 0.0 0.0 0.00 0.00 0.00 92 1022.4
20180218115506 15 0 0.0 0.0 0.00 0.00 0.00 92 1022.3
20180218115006 15 0 0.0 0.0 0.00 0.00 0.00 92 1022.4
20180218114506 15 0 0.0 0.0 0.00 0.00 0.00 92 1022.4
20180218114006 15 0 0.0 0.0 0.00 0.00 0.00 92 1022.6
20180218113506 15 0 0.0 0.0 0.00 0.00 0.00 93 1022.6
20180218113006 15 0 0.0 0.0 0.00 0.00 0.00 93 1022.6
20180218112506 15 0 0.0 0.0 0.00 0.00 0.00 93 1022.7
20180218112006 15 0 0.0 0.0 0.00 0.00 0.00 93 1022.6
20180218111506 15 216 0.0 1.0 0.00 0.00 0.00 93 1022.6
20180218111006 15 209 0.0 1.0 0.00 0.00 0.00 93 1022.6
20180218110506 15 200 0.0 1.0 0.00 0.00 0.00 92 1022.4
20180218110007 14 0 0.0 0.0 0.00 0.00 0.00 92 1022.3
20180218105506 14 0 0.0 0.0 0.00 0.00 0.00 92 1022.3
20180218105008 14 0 0.0 0.0 0.00 0.00 0.00 92 1022.3
20180218104506 14 0 0.0 0.0 0.00 0.00 0.00 91 1022.5
20180218104006 14 0 0.0 0.0 0.00 0.00 0.00 91 1022.5
20180218103506 14 0 0.0 0.0 0.00 0.00 0.00 91 1022.5
20180218103006 14 0 0.0 0.0 0.00 0.00 0.00 90 1022.5
20180218102506 14 0 0.0 0.0 0.00 0.00 0.00 91 1022.4
20180218102006 14 0 0.0 0.0 0.00 0.00 0.00 90 1022.5
20180218101506 14 0 0.0 0.0 0.00 0.00 0.00 90 1022.4
20180218101006 14 0 0.0 0.0 0.00 0.00 0.00 90 1022.2
20180218100505 14 0 0.0 0.0 0.00 0.00 0.00 90 1022.1
20180218100007 14 0 0.0 0.0 0.00 0.00 0.00 90 1022.0
20180218095505 14 0 0.0 0.0 0.00 0.00 0.00 90 1021.8
20180218095006 14 0 0.0 0.0 0.00 0.00 0.00 90 1021.8
20180218094506 15 0 0.0 0.0 0.00 0.00 0.00 90 1021.9
20180218094006 15 0 0.0 0.0 0.00 0.00 0.00 90 1022.1
20180218093505 15 0 0.0 0.0 0.00 0.00 0.00 90 1022.2
20180218093005 16 0 0.0 0.0 0.00 0.00 0.00 90 1022.3
20180218092506 16 0 0.0 0.0 0.00 0.00 0.00 91 1022.3
20180218092006 16 0 0.0 0.0 0.00 0.00 0.00 91 1022.0
20180218091506 17 0 0.0 0.0 0.00 0.00 0.00 91 1021.9
20180218091006 17 0 0.0 0.0 0.00 0.00 0.00 91 1021.9
20180218090506 17 0 0.0 0.0 0.00 0.00 0.00 91 1022.0
20180218090006 17 213 0.0 2.0 0.00 0.00 0.00 91 1022.1
20180218085506 17 209 0.0 2.0 0.00 0.00 0.00 92 1022.3
20180218085006 18 200 0.0 1.0 0.00 0.00 0.00 92 1022.3
20180218084505 18 0 0.0 0.0 0.00 0.00 0.00 92 1022.4
20180218084005 18 0 0.0 0.0 0.00 0.00 0.00 92 1022.4
20180218083504 18 0 0.0 0.0 0.00 0.00 0.00 92 1022.4
20180218083038 17 0 0.0 0.0 0.00 0.00 0.00 91 1022.5
20180218081506 18 0 0.0 0.0 0.00 0.00 0.00 91 1022.3
20180218081005 18 0 0.0 0.0 0.00 0.00 0.00 91 1022.5
20180218080506 18 0 0.0 0.0 0.00 0.00 0.00 91 1022.4
20180218080009 18 0 0.0 0.0 0.00 0.00 0.00 91 1022.2
20180218075508 18 0 0.0 0.0 0.00 0.00 0.00 91 1022.1
20180218075008 18 217 0.0 4.0 0.00 0.00 0.00 91 1022.5
20180218074508 18 216 0.0 4.0 0.00 0.00 0.00 90 1022.6
20180218074009 18 210 0.0 2.0 0.00 0.00 0.00 90 1022.1
20180218073509 18 207 0.0 3.0 0.00 0.00 0.00 90 1021.8
20180218073008 18 204 0.0 3.0 0.00 0.00 0.00 90 1021.7
20180218072508 19 197 0.0 2.0 0.00 0.00 0.00 90 1021.6
20180218072009 19 175 0.0 1.0 0.00 0.00 0.00 90 1021.5
20180218071508 19 175 0.0 1.0 0.00 0.00 0.00 90 1021.5
20180218071009 20 0 0.0 0.0 0.00 0.00 0.00 90 1021.1
20180218070509 20 0 0.0 0.0 0.00 0.00 0.00 90 1021.0
20180218070008 20 0 0.0 0.0 0.00 0.00 0.00 90 1020.7
20180218065508 20 0 0.0 0.0 0.00 0.00 0.00 90 1020.8
20180218065008 20 0 0.0 0.0 0.00 0.00 0.00 91 1020.6
20180218064508 21 0 0.0 0.0 0.00 0.00 0.00 91 1020.7
20180218064009 21 0 0.0 0.0 0.00 0.00 0.00 90 1020.5
20180218063508 21 0 0.0 0.0 0.00 0.00 0.00 91 1020.3
20180218063008 22 0 0.0 0.0 0.00 0.00 0.00 91 1020.2
20180218062508 22 0 0.0 0.0 0.00 0.00 0.00 91 1020.2
20180218062008 22 297 0.0 5.0 0.00 0.00 0.00 91 1020.2
20180218061509 22 299 2.0 10.0 0.00 0.00 0.00 91 1020.1
20180218061008 22 297 2.0 10.0 0.00 0.00 0.00 92 1020.1
20180218060508 22 298 4.0 11.0 0.00 0.00 0.00 92 1020.1
20180218060013 22 298 5.0 11.0 0.00 0.00 0.00 92 1019.9
20180218055508 22 296 6.0 11.0 0.00 0.00 0.00 92 1019.9
20180218055008 22 296 6.0 11.0 0.00 0.00 0.00 91 1019.6
20180218054508 22 296 6.0 13.0 0.00 0.00 0.00 91 1019.5
20180218054009 22 297 5.0 13.0 0.00 0.00 0.00 90 1019.4
20180218053508 22 299 3.0 11.0 0.00 0.00 0.00 90 1019.1
20180218053009 22 300 2.0 8.0 0.00 0.00 0.00 89 1019.1
20180218052508 22 297 2.0 8.0 0.00 0.00 0.00 89 1019.0
20180218052008 22 294 1.0 5.0 0.00 0.00 0.00 88 1019.0
20180218051508 22 282 1.0 4.0 0.00 0.00 0.00 88 1018.8
20180218051009 22 282 0.0 3.0 0.00 0.00 0.00 88 1018.7
20180218050508 22 272 0.0 2.0 0.00 0.00 0.00 88 1018.6
20180218050008 23 272 0.0 2.0 0.00 0.00 0.00 87 1018.6
20180218045508 23 299 0.0 3.0 0.00 0.00 0.00 87 1018.5
20180218045008 23 297 1.0 5.0 0.00 0.00 0.00 87 1018.6
20180218044508 24 298 1.0 5.0 0.00 0.00 0.00 87 1018.5
20180218044008 24 296 1.0 3.0 0.00 0.00 0.00 87 1018.6
20180218043508 24 294 1.0 3.0 0.00 0.00 0.00 88 1018.8
20180218043008 25 288 1.0 4.0 0.00 0.00 0.00 88 1018.8
20180218042508 25 263 1.0 4.0 0.00 0.00 0.00 88 1018.8
20180218042008 25 269 1.0 4.0 0.00 0.00 0.00 88 1018.9
20180218041508 25 270 1.0 5.0 0.00 0.00 0.00 89 1018.9
20180218041011 26 264 1.0 8.0 0.00 0.00 0.00 89 1019.1
20180218040509 26 260 1.0 8.0 0.00 0.00 0.00 89 1019.0
20180218040010 26 263 1.0 9.0 0.00 0.00 0.00 89 1018.7
20180218035509 26 260 3.0 11.0 0.00 0.00 0.00 89 1018.8
20180218035008 26 254 4.0 14.0 0.00 0.00 0.00 89 1018.8
20180218034508 27 252 3.0 14.0 0.00 0.00 0.00 89 1018.8
20180218034008 27 252 3.0 14.0 0.00 0.00 0.00 89 1018.7
20180218033507 27 254 2.0 10.0 0.00 0.00 0.00 88 1018.5
20180218033008 27 260 1.0 9.0 0.00 0.00 0.00 89 1018.3
20180218032508 27 268 0.0 6.0 0.00 0.00 0.00 89 1018.0
20180218032008 27 286 1.0 8.0 0.00 0.00 0.00 89 1018.0
20180218031508 28 290 2.0 9.0 0.00 0.00 0.00 89 1017.9
20180218031007 28 290 3.0 10.0 0.00 0.00 0.00 89 1017.8
20180218030508 28 291 3.0 10.0 0.00 0.00 0.00 89 1017.7
20180218030008 28 291 4.0 10.0 0.00 0.00 0.00 89 1017.7
20180218025508 28 293 4.0 11.0 0.00 0.00 0.00 89 1017.6
20180218025008 28 300 5.0 14.0 0.00 0.00 0.00 90 1017.5
20180218024508 28 303 6.0 14.0 0.00 0.00 0.00 90 1017.3
20180218024008 28 304 5.0 11.0 0.00 0.00 0.00 90 1017.3
20180218023508 28 300 4.0 9.0 0.00 0.00 0.00 90 1017.2
20180218023008 28 298 5.0 15.0 0.00 0.00 0.00 90 1017.2
20180218022507 28 300 4.0 15.0 0.00 0.00 0.00 90 1017.3
20180218022008 28 299 3.0 12.0 0.00 0.00 0.00 90 1017.1
20180218021507 28 298 4.0 12.0 0.00 0.00 0.00 90 1017.0
20180218021008 28 297 5.0 11.0 0.00 0.00 0.00 90 1017.1
20180218020508 28 295 4.0 12.0 0.00 0.00 0.00 90 1017.0
20180218020007 28 293 3.0 12.0 0.00 0.00 0.00 90 1016.8
20180218015508 28 293 3.0 10.0 0.00 0.00 0.00 90 1016.8
20180218015008 28 294 2.0 10.0 0.00 0.00 0.00 90 1016.7
20180218014508 28 296 4.0 15.0 0.00 0.00 0.00 90 1016.7
20180218014007 28 297 6.0 15.0 0.00 0.00 0.00 90 1016.6
20180218013507 28 297 7.0 15.0 0.00 0.00 0.00 90 1016.6
20180218013007 28 296 5.0 15.0 0.00 0.00 0.00 90 1016.5
20180218012508 28 295 4.0 14.0 0.00 0.00 0.00 90 1016.4
20180218012008 28 292 6.0 15.0 0.00 0.00 0.00 90 1016.2
20180218011507 28 294 7.0 18.0 0.00 0.00 0.00 91 1016.2
20180218011008 28 298 8.0 19.0 0.00 0.00 0.00 91 1016.1
20180218010509 28 299 7.0 19.0 0.00 0.00 0.00 91 1016.1
20180218010009 28 297 6.0 16.0 0.00 0.00 0.00 91 1015.9
20180218005508 28 296 7.0 15.0 0.00 0.00 0.00 91 1015.6
20180218005007 28 296 6.0 14.0 0.00 0.00 0.00 91 1015.6
20180218004507 29 297 6.0 13.0 0.00 0.00 0.00 91 1015.4
20180218004008 29 296 5.0 13.0 0.00 0.00 0.00 91 1015.4
20180218003507 29 293 4.0 11.0 0.00 0.00 0.00 91 1015.3
20180218003007 29 294 5.0 11.0 0.00 0.00 0.00 91 1015.2
20180218002508 29 299 6.0 14.0 0.00 0.00 0.00 91 1015.0
20180218002008 30 301 6.0 14.0 0.00 0.00 0.00 92 1014.8
20180218001507 30 299 7.0 14.0 0.00 0.00 0.00 93 1014.7
20180218001008 30 294 9.0 18.0 0.00 0.00 0.00 93 1014.7
20180218000508 30 294 8.0 18.0 0.00 0.00 0.00 93 1014.4
20180218000008 31 295 6.0 13.0 0.00 0.00 0.00 93 1014.2
20180217235507 31 291 5.0 11.0 0.00 0.00 0.00 94 1014.1
20180217235007 31 280 5.0 11.0 0.00 0.00 0.00 94 1013.9
20180217234508 31 272 4.0 9.0 0.00 0.00 0.00 93 1013.8
20180217234008 31 269 3.0 9.0 0.00 0.00 0.00 93 1013.7
20180217233507 31 264 3.0 10.0 0.00 0.00 0.00 93 1013.2
20180217233007 31 262 4.0 12.0 0.00 0.00 0.00 93 1013.2
20180217232507 31 254 4.0 12.0 0.00 0.00 0.00 93 1013.2
20180217232008 31 244 4.0 10.0 0.00 0.00 0.00 93 1013.2
20180217231507 32 236 3.0 8.0 0.00 0.00 0.00 93 1012.7
20180217231007 32 238 3.0 8.0 0.00 0.00 0.00 93 1012.5
20180217230508 32 236 3.0 8.0 0.00 0.00 0.00 93 1012.8
20180217230008 32 229 3.0 8.0 0.00 0.00 0.00 93 1012.6
20180217225507 32 221 3.0 6.0 0.00 0.00 0.00 93 1012.6
20180217225007 32 219 3.0 6.0 0.00 0.00 0.00 93 1012.5
20180217224507 32 221 2.0 6.0 0.00 0.00 0.00 93 1012.4
20180217224008 32 213 2.0 6.0 0.00 0.00 0.00 93 1012.3
20180217223508 32 211 3.0 9.0 0.00 0.00 0.00 93 1012.4
20180217223008 32 203 2.0 9.0 0.00 0.00 0.00 92 1012.5
20180217222507 32 202 2.0 5.0 0.00 0.00 0.00 92 1012.4
20180217222007 32 195 1.0 4.0 0.00 0.00 0.00 92 1012.3
20180217221507 32 201 2.0 5.0 0.00 0.00 0.00 92 1012.2
20180217221007 32 197 2.0 5.0 0.00 0.00 0.00 92 1012.1
20180217220508 32 188 2.0 5.0 0.00 0.00 0.00 92 1012.0
20180217220007 32 195 1.0 4.0 0.00 0.00 0.00 92 1012.0
20180217215507 32 188 1.0 3.0 0.00 0.00 0.00 92 1012.1
20180217215007 33 173 0.0 3.0 0.00 0.00 0.00 92 1012.1
20180217214507 33 172 0.0 3.0 0.00 0.00 0.00 92 1011.9
20180217214007 32 174 2.0 8.0 0.00 0.00 0.00 91 1011.9
20180217213507 32 174 2.0 8.0 0.00 0.00 0.00 91 1011.9
20180217213008 32 174 1.0 6.0 0.00 0.00 0.00 91 1011.7
20180217212507 32 160 0.0 5.0 0.00 0.00 0.00 90 1011.7
20180217212007 32 164 2.0 5.0 0.00 0.00 0.00 90 1011.7
20180217211507 32 165 3.0 8.0 0.00 0.00 0.00 90 1011.6
20180217211007 32 160 2.0 8.0 0.00 0.00 0.00 89 1011.4
20180217210507 33 157 2.0 5.0 0.00 0.00 0.00 89 1011.5
20180217210007 33 163 3.0 6.0 0.00 0.00 0.00 89 1011.5
20180217205508 33 166 4.0 8.0 0.00 0.00 0.00 88 1011.5
20180217205008 33 165 3.0 9.0 0.00 0.00 0.00 88 1011.5
20180217204508 33 170 3.0 11.0 0.00 0.00 0.00 87 1011.5
20180217204007 33 174 3.0 11.0 0.00 0.00 0.00 86 1011.7
20180217203507 34 175 2.0 12.0 0.00 0.00 0.00 86 1011.6
20180217203008 34 171 3.0 12.0 0.00 0.00 0.00 85 1011.5
20180217202507 34 177 4.0 12.0 0.00 0.00 0.00 84 1011.5
20180217202006 34 185 5.0 15.0 0.00 0.00 0.00 82 1011.6
20180217201507 35 176 6.0 15.0 0.00 0.00 0.00 80 1011.7
20180217201007 35 170 4.0 12.0 0.00 0.00 0.00 78 1011.6
20180217200507 35 163 5.0 15.0 0.00 0.00 0.00 77 1011.8
20180217200007 35 157 6.0 15.0 0.00 0.00 0.00 77 1011.6
20180217195507 35 152 6.0 15.0 0.00 0.00 0.00 77 1011.4
20180217195007 35 149 6.0 13.0 0.00 0.00 0.00 77 1011.2
20180217194507 35 143 6.0 15.0 0.00 0.00 0.00 77 1011.1
20180217194006 35 139 5.0 15.0 0.00 0.00 0.00 77 1011.0
20180217193507 35 142 5.0 12.0 0.00 0.00 0.00 76 1011.0
20180217193007 35 144 5.0 12.0 0.00 0.00 0.00 76 1011.2
20180217192507 35 142 4.0 11.0 0.00 0.00 0.00 75 1011.6
20180217192007 35 144 2.0 10.0 0.00 0.00 0.00 75 1012.1
20180217191506 35 166 3.0 9.0 0.00 0.00 0.00 75 1012.5
20180217191007 35 160 5.0 12.0 0.00 0.00 0.00 74 1012.6
20180217190506 35 153 6.0 12.0 0.00 0.00 0.00 75 1012.7
20180217190007 35 152 5.0 12.0 0.00 0.00 0.00 75 1012.8
20180217185507 35 156 5.0 12.0 0.00 0.00 0.00 75 1012.8
20180217185007 35 157 6.0 12.0 0.00 0.00 0.00 75 1013.0
20180217184506 34 158 5.0 10.0 0.00 0.00 0.00 75 1013.0
20180217184007 34 162 5.0 11.0 0.00 0.00 0.00 76 1013.1
20180217183506 34 162 5.0 11.0 0.00 0.00 0.00 76 1013.3
20180217183007 34 160 5.0 12.0 0.00 0.00 0.00 75 1013.4
20180217182507 34 163 5.0 12.0 0.00 0.00 0.00 75 1013.6
20180217182007 34 164 5.0 10.0 0.00 0.00 0.00 75 1013.8